Theta_e
309 308 308 307 304 302 303 303 302 302 301 301 301 301 300 300 300 301 301 301 301 301 301 302 302 303 303 304 304 304 304 304 305 303 304 304 303 301 301 299 299 298 298
309 308 306 304 302 302 302 302 301 301 300 300 300 299 299 299 299 299 299 299 299 299 300 300 301 301 302 302 303 303 303 303 304 303 303 303 303 302 301 300 300 299 298
308 306 303 302 302 302 302 301 301 300 299 299 298 298 298 298 298 298 298 298 298 298 298 299 299 299 299 300 300 301 302 302 302 302 302 300 301 301 301 300 299 299 299
305 303 302 302 302 302 301 300 299 298 298 298 298 297 297 297 297 297 297 297 297 297 297 297 298 298 298 298 298 298 298 299 300 300 300 300 300 299 299 300 301 299 299
303 302 302 302 301 301 300 299 298 298 298 297 296 297 297 296 295 295 295 295 296 296 297 298 298 298 298 298 298 298 298 298 298 298 298 298 298 298 298 298 299 299 299
302 301 301 301 301 300 298 297 298 297 296 296 297 296 295 294 294 293 293 293 294 295 296 296 297 297 298 298 298 298 298 298 298 298 298 298 298 298 298 298 298 297 298
301 301 301 300 300 298 297 297 297 296 295 296 296 295 294 293 292 292 291 291 291 292 292 293 294 294 294 294 295 295 296 296 297 296 297 297 298 298 297 297 297 298 299
301 300 300 300 299 297 297 297 296 295 295 295 295 294 293 292 291 291 290 290 290 290 289 289 289 289 289 289 289 289 289 288 289 289 290 290 293 294 296 296 297 297 298
301 300 300 299 298 297 297 296 295 295 295 294 294 292 291 291 290 290 290 289 289 289 289 289 289 288 288 288 288 288 288 288 288 288 288 288 288 288 288 292 295 295 296
301 301 300 299 297 297 296 295 294 294 294 293 292 291 290 290 289 289 289 289 289 289 288 288 288 288 288 288 288 288 288 288 288 288 287 287 287 288 288 288 290 293 293
301 300 300 298 296 295 295 294 293 293 292 292 291 290 289 289 289 289 289 289 289 288 288 288 288 288 288 288 287 287 287 287 287 287 287 287 287 287 287 287 287 288 290
301 300 299 297 295 294 294 293 292 292 291 290 290 289 289 289 289 289 288 288 288 288 288 288 288 288 287 287 287 287 287 287 287 287 287 287 286 286 286 286 286 286 287
300 300 298 296 294 293 293 292 291 291 290 290 289 289 289 288 288 288 288 288 288 288 288 288 287 287 287 287 287 287 287 287 287 286 286 286 286 286 286 286 286 286 286
300 299 297 295 293 292 292 291 291 290 290 291 290 289 288 288 288 288 288 288 288 287 287 287 287 287 287 287 286 286 286 286 286 286 286 286 286 286 286 286 286 285 285
299 298 295 294 292 291 291 290 290 291 293 293 289 288 288 288 288 287 287 287 287 287 287 287 287 287 286 286 286 286 286 286 286 286 286 286 286 285 285 285 285 286 286
298 296 294 292 291 290 290 291 292 294 292 288 288 288 288 288 287 287 287 287 287 287 287 287 286 286 286 286 286 286 286 285 286 286 286 285 285 285 285 285 286 286 286
296 294 292 291 290 289 291 294 293 291 288 288 287 287 287 287 287 287 287 287 287 287 287 287 286 286 286 286 286 285 285 285 285 285 285 285 285 285 285 285 286 286 286
292 291 290 290 291 293 294 292 289 287 287 287 287 287 287 287 287 287 287 287 287 287 287 286 286 286 286 286 285 285 285 284 283 283 283 283 284 284 284 284 285 286 286
290 291 293 294 294 292 291 288 287 287 287 287 287 287 287 287 287 287 286 286 286 286 286 286 286 286 286 285 285 285 285 284 284 284 283 283 283 284 284 284 284 285 286
294 295 294 292 291 290 287 287 287 287 287 287 287 287 287 286 286 286 286 285 285 285 286 286 285 285 285 285 285 284 284 284 284 283 283 282 283 284 284 284 284 285 285
293 292 291 290 289 287 287 287 287 287 287 287 287 287 286 286 286 286 286 285 285 285 285 285 285 285 285 285 285 284 284 284 283 283 283 282 283 284 285 285 284 283 283
291 290 289 289 288 287 287 287 287 287 287 287 286 286 286 286 286 285 285 285 285 285 285 285 285 285 285 285 284 284 283 283 282 282 282 283 283 283 283 283 283 283 283
289 288 288 287 287 287 286 287 287 287 287 286 286 286 286 286 285 285 285 285 285 285 285 285 285 284 284 284 283 283 282 282 282 282 282 282 282 283 282 282 283 283 284
287 287 286 286 287 287 287 287 287 287 287 286 286 285 285 285 285 285 285 284 284 285 285 285 285 284 284 283 283 282 282 282 281 281 281 282 282 282 282 282 282 282 282
288 288 288 288 288 288 287 287 286 286 286 286 285 285 285 285 285 285 285 284 285 285 285 285 285 284 284 283 282 282 282 282 282 282 282 282 282 283 283 283 283 283 283
288 288 287 287 286 286 286 286 286 285 285 285 285 285 285 285 285 285 284 284 285 285 285 285 285 284 284 283 282 282 282 282 283 283 283 283 283 283 284 284 284 284 284
Wind_Speed
24 21 19 18 16 14 13 11 9 8 6 5 4 4 4 4 4 5 5 5 6 8 9 9 10 11 11 11 12 12 12 11 17 20 17 17 20 20 19 21 22 21 21
23 22 20 18 16 14 12 10 9 7 6 4 4 3 2 2 2 3 5 4 5 6 8 8 10 11 11 12 12 12 12 12 16 21 19 20 19 21 22 22 22 22 21
24 22 20 17 15 14 12 11 9 8 7 6 4 3 2 2 2 2 3 4 5 5 6 7 8 9 10 10 11 12 12 14 15 18 23 23 20 19 20 23 21 21 21
24 22 20 18 16 15 14 12 11 10 8 6 5 4 2 2 3 3 4 4 5 6 6 7 8 9 9 10 11 12 13 14 13 15 17 17 17 18 20 18 19 20 21
25 23 21 19 18 17 16 14 13 11 9 7 5 4 3 4 4 5 5 5 6 6 6 7 7 8 9 10 10 11 13 14 15 17 19 19 20 16 16 18 19 20 22
26 24 22 21 21 19 17 15 14 12 10 8 6 5 5 5 6 5 5 6 6 5 5 6 7 8 9 10 11 12 13 13 14 17 19 20 20 19 22 21 23 25 24
26 25 24 23 21 20 19 17 15 13 11 9 7 6 6 6 6 6 6 6 6 6 6 6 7 9 10 11 12 13 15 16 17 19 18 17 20 17 22 24 23 23 25
28 27 25 24 23 22 20 18 17 15 12 10 9 7 6 6 5 5 5 5 5 6 7 8 10 11 12 14 15 15 15 16 16 19 21 23 24 26 25 24 26 27 27
29 27 26 26 24 23 22 20 18 15 13 11 9 8 7 6 5 5 5 5 5 6 7 9 11 12 14 15 17 19 20 20 19 19 20 22 23 23 25 27 27 25 28
31 28 27 26 25 24 22 21 19 17 14 11 10 8 7 7 6 6 5 5 6 7 7 8 10 12 15 17 19 21 22 23 25 25 24 22 23 23 23 22 22 25 27
29 28 27 26 25 24 22 21 18 16 14 12 10 9 9 8 7 7 7 7 7 8 9 10 12 13 14 16 17 19 21 23 24 26 27 29 29 26 24 24 24 25 24
29 28 28 27 26 25 23 21 18 16 13 12 11 10 10 10 9 9 8 8 9 10 11 13 15 16 18 19 20 21 23 24 26 27 28 28 27 28 29 29 27 26 25
29 28 28 27 26 25 23 21 19 16 14 12 12 12 12 12 11 11 10 11 11 13 15 16 18 19 20 21 22 23 25 27 29 30 31 31 30 30 29 29 29 30 27
30 30 29 28 27 25 23 20 18 15 12 13 14 16 15 14 12 13 13 13 14 16 17 19 20 21 22 24 25 25 27 30 31 32 32 31 31 31 31 30 30 29 31
30 30 30 28 25 23 21 18 15 11 14 18 19 16 15 15 12 13 14 15 16 17 20 22 24 24 25 27 29 30 31 31 31 31 30 31 32 31 31 30 30 29 30
29 30 29 26 24 22 19 15 15 16 20 20 18 18 16 16 14 15 16 17 17 18 22 25 27 26 28 29 30 31 31 32 31 30 32 32 32 32 31 29 28 27 29
27 28 26 24 23 21 19 19 13 19 21 20 19 18 17 16 16 17 19 19 21 21 25 27 29 30 31 31 30 31 33 29 27 28 28 29 29 30 28 27 25 26 29
25 24 24 22 20 21 16 13 20 22 21 20 18 18 18 17 18 20 21 22 25 26 27 29 30 31 32 33 32 31 30 31 26 27 28 29 29 28 27 27 26 26 27
27 26 24 23 19 14 15 21 22 22 21 20 19 18 17 18 20 21 21 24 26 28 29 31 31 31 32 32 32 30 28 27 25 27 31 31 30 27 27 27 28 26 26
24 24 20 15 15 17 21 22 22 22 21 21 22 19 17 19 20 20 22 24 26 29 30 31 33 33 31 30 30 30 27 29 30 32 34 33 28 24 26 27 27 28 30
17 16 19 15 19 21 22 23 23 22 23 23 23 20 18 20 21 23 25 27 28 30 30 31 31 30 29 28 28 29 31 33 36 34 30 29 26 27 24 27 36 35 35
15 12 16 19 20 23 24 23 24 24 24 24 23 21 19 21 23 26 27 29 29 28 26 25 26 27 27 26 29 30 33 37 32 29 29 29 30 33 34 33 34 36 32
14 17 20 23 25 25 25 25 25 25 25 25 24 23 23 24 25 27 27 29 27 22 21 21 22 24 26 27 28 30 31 29 29 31 32 31 32 33 35 38 33 30 27
20 22 23 23 24 24 25 26 26 26 26 25 25 24 24 25 26 27 26 26 25 21 18 20 23 26 27 28 29 30 32 29 30 30 30 31 33 33 33 32 32 33 33
21 23 24 25 25 26 26 26 26 25 25 25 25 26 26 27 26 26 25 25 22 18 19 21 25 27 29 29 29 29 29 31 30 28 29 30 31 31 32 32 32 33 31
22 23 24 24 24 24 24 25 25 25 25 26 27 27 27 26 26 25 26 25 20 19 20 24 27 28 29 28 29 30 30 27 25 25 25 27 27 28 30 31 32 31 29
Wind_Direction
223 222 223 226 229 235 240 242 246 250 253 257 264 276 287 297 306 304 297 296 294 290 290 292 289 288 289 291 292 292 286 280 279 294 296 300 303 311 311 310 311 312 311
219 219 220 222 227 229 230 231 231 229 230 233 237 242 257 282 302 312 310 313 309 302 301 304 298 297 297 295 293 293 288 287 285 291 302 307 305 309 311 312 312 310 307
214 215 216 220 222 222 222 221 218 213 210 207 205 209 232 269 303 324 317 320 318 313 311 311 306 306 305 302 302 300 297 296 296 294 303 309 309 311 311 314 310 308 309
211 213 216 218 218 217 215 211 208 204 200 199 202 209 232 271 301 315 315 320 321 324 326 325 323 320 319 317 316 313 311 309 305 302 303 306 308 314 315 318 312 309 307
212 213 215 213 212 211 209 206 201 199 201 203 207 225 256 278 290 301 310 319 325 328 330 331 332 333 335 335 334 331 327 323 319 318 317 317 319 321 321 316 312 311 311
210 211 211 211 210 207 204 201 201 202 204 210 224 244 262 277 290 298 305 312 318 323 325 326 330 334 336 337 338 338 336 334 329 326 323 321 322 321 324 320 317 318 320
210 211 211 209 208 205 203 203 205 206 209 220 232 244 258 272 285 298 310 317 319 319 322 323 322 322 323 321 320 320 319 319 317 314 313 313 310 314 313 316 315 309 304
211 211 210 210 207 205 205 206 207 210 215 223 232 242 254 265 278 295 306 311 317 322 326 331 332 333 331 332 330 327 325 321 316 310 308 307 301 301 299 301 305 306 305
214 213 213 211 208 208 209 209 211 215 220 226 233 242 251 260 270 278 287 301 312 317 321 326 328 331 332 331 329 326 325 324 319 314 310 309 308 307 305 297 297 299 302
215 216 215 212 211 211 211 211 212 215 220 226 235 243 249 253 258 268 282 290 299 311 317 321 325 326 324 325 323 322 321 321 320 318 315 312 310 309 309 305 294 291 293
217 216 214 213 213 212 212 213 216 219 222 228 234 240 245 252 259 266 272 283 294 302 308 313 316 317 317 316 315 315 315 315 315 314 314 316 317 316 312 306 302 293 290
217 214 213 213 212 212 213 215 217 219 224 230 236 243 250 254 256 263 270 278 288 296 303 308 311 314 315 315 316 316 315 314 313 312 311 310 309 309 311 311 308 303 294
215 215 213 212 212 212 214 216 217 220 225 233 247 251 255 254 254 260 266 275 284 291 298 303 306 309 309 308 308 308 307 306 306 305 305 306 307 307 303 303 304 306 302
216 214 213 212 212 212 213 215 218 222 234 251 256 254 249 250 254 261 269 276 281 287 292 296 299 302 303 304 304 305 303 302 300 299 299 299 299 300 301 303 303 305 306
214 214 212 211 212 213 215 217 221 238 250 251 251 249 250 255 259 266 275 282 286 291 294 297 300 303 304 305 306 307 306 302 299 298 297 298 298 298 297 298 298 301 301
213 212 211 209 208 211 211 218 230 241 248 250 248 249 251 259 266 272 279 283 286 289 288 291 294 296 298 301 301 302 302 299 297 295 295 297 299 298 296 293 292 292 296
214 211 208 206 206 207 215 241 233 244 250 248 250 252 258 265 270 277 279 282 283 283 281 286 289 292 296 297 298 302 307 303 297 294 297 297 296 294 293 292 289 288 291
206 205 202 202 209 226 233 228 245 250 250 251 251 255 261 269 274 277 280 280 280 281 282 283 285 289 294 296 298 302 303 306 300 301 301 297 295 293 296 293 291 286 289
197 199 211 225 238 212 230 246 248 251 253 255 256 257 264 269 272 276 278 275 280 283 284 284 287 290 292 293 295 301 301 301 301 298 298 295 293 288 289 288 290 287 284
216 233 238 217 211 229 244 247 250 254 259 263 267 271 272 273 277 283 285 286 285 284 284 285 289 291 292 291 295 301 299 303 304 301 299 297 295 286 283 288 293 294 293
236 224 209 214 231 245 249 251 254 258 262 265 268 271 273 276 281 287 291 291 289 287 286 286 288 289 289 289 292 294 296 297 300 298 292 294 293 294 284 282 290 290 291
209 212 230 242 248 253 253 257 260 261 264 267 270 273 272 277 286 292 293 293 290 286 284 285 286 287 287 285 286 289 288 295 295 291 291 292 290 287 290 292 290 291 291
241 243 248 252 253 257 259 260 261 263 265 267 268 271 276 282 289 292 294 298 299 290 288 285 287 290 291 290 291 291 293 290 286 286 287 289 289 286 284 287 288 286 282
246 253 256 257 259 261 262 265 268 267 266 266 268 271 276 284 290 291 292 292 290 290 285 287 291 294 297 296 294 290 292 292 294 292 288 284 285 288 290 287 286 284 286
260 259 259 260 262 263 266 266 266 266 267 266 267 272 278 284 286 286 285 289 286 280 284 290 294 297 298 297 296 298 297 298 295 291 289 288 289 292 293 293 295 294 288
264 264 263 263 263 263 265 267 269 271 270 270 270 272 276 280 281 283 281 281 275 281 289 295 296 296 298 296 298 301 299 296 294 292 289 287 287 289 295 295 296 294 288